STARLINK-1806 (47549 NORAD) Tracking and Keplerian Element Data

This shows tracking and keplerian element data for the satellite.

Feedback or suggestion? Click here.




ElementValue
Catalog47549
NameSTARLINK-1806
Epoch Orbit182
Epoch Day99.91667824
Epoch Year2021
RAAN167.3156
Inclination53.0522
Eccentricity0.0003755
Argument of Perigee14.199
Mean Anonmoly137.4572
Mean Motion15.62660934
Decay Rate0.00019104
L11 47549U 21009B 21099.91667824 .00019104 00000-0 21472-3 0 9999
L22 47549 53.0522 167.3156 0003755 14.1990 137.4572 15.62660934 1823

Live tracking and technical data element details for STARLINK-1806 (NORAD 47549). STARLINK-1806 can be tracked NOW for your location showing map with azimuth and elevation plus other details from your city location.

Track the satellite on the map from your city or location and see movement details for azimuth, elevation, latitude, longitude, range, height, and movement on the map or in text.







IsCatalogInMostPopularTable: catalog: 47549, numindb: 14
Update: records affected: 1



GetName: 47549 STARLINK-1806

Hit Count: updated at: Sat, 10 Apr 2021 18:15:19 GMT